Change the Weather History Date:

Monday, September 16, 2013

  Actual Average (KLAF) Record (KLAF)
Temperature  
Mean Temperature 58 °F 66 °F  
Max Temperature 69 °F 78 °F 88 °F (1978)
Min Temperature 45 °F 54 °F 37 °F (1984)
Degree Days  
Heating Degree Days 8 2  
Month to date heating degree days 19  
Since 1 July heating degree days 25  
Cooling Degree Days 0 3  
Month to date cooling degree days 81  
Year to date cooling degree days 933  
Growing Degree Days 8 (Base 50)    
Moisture  
Dew Point 51 °F    
Average Humidity 78    
Maximum Humidity 94    
Minimum Humidity 56    
Precipitation  
Precipitation 0.00 in 0.08 in 1.20 in (1980)
Month to date precipitation 1.44  
Year to date precipitation 26.99  
Sea Level Pressure  
Sea Level Pressure 30.23 in    
Wind  
Wind Speed 7 mph (NE)    
Max Wind Speed 12 mph    
Max Gust Speed 18 mph    
Visibility 8 miles    
Events      
T = Trace of Precipitation, MM = Missing Value Source: NWS Daily Summary

Daily Weather History Graph

Daily Weather History Graph

Search for Another Location

Airport or City:

Trip Planner

Search our weather history database for the weather conditions in past years. The results will help you decide how hot, cold, wet, or windy it might be!

Date:

Astronomy

Sep. 16, 2013 Rise Set
Actual Time 6:32 AM CDT 6:57 PM CDT
Civil Twilight 6:05 AM CDT 7:24 PM CDT
Nautical Twilight 5:33 AM CDT 7:56 PM CDT
Astronomical Twilight 5:00 AM CDT 8:28 PM CDT
Moon 5:05 PM CDT (9/16) 3:17 AM CDT (9/16)
Length of Visible Light 13h 19m
Length of Day
12h 24m
Waxing Gibbous, 90% of the Moon is Illuminated
Sep 16
Waxing Gibbous
Sep 19
Full
Sep 26
Last Quarter
Oct 4
New
Oct 11
First Quarter

Hourly Weather History & Observations

Time (CDT) Temp. Windchill Dew Point Humidity Pressure Visibility Wind Dir Wind Speed Gust Speed Precip Events Conditions
12:15 AM 58.1 °F - 55.4 °F 91% 30.09 in 7.0 mi North 5.8 mph - N/A   Overcast
12:35 AM 58.3 °F - 55.6 °F 91% 30.10 in 5.0 mi North 8.1 mph - N/A   Overcast
12:55 AM 58.1 °F - 55.4 °F 91% 30.10 in 5.0 mi North 4.6 mph - N/A   Overcast
1:15 AM 58.3 °F - 56.3 °F 93% 30.11 in 5.0 mi North 4.6 mph - N/A   Overcast
1:35 AM 58.1 °F - 55.9 °F 93% 30.12 in 5.0 mi North 5.8 mph - N/A   Overcast
1:55 AM 57.4 °F - 55.4 °F 93% 30.11 in 4.0 mi North 4.6 mph - N/A   Mostly Cloudy
2:15 AM 56.1 °F - 54.1 °F 93% 30.11 in 3.0 mi North 4.6 mph - N/A   Overcast
2:35 AM 56.5 °F - 54.7 °F 94% 30.12 in 3.0 mi North 6.9 mph - N/A   Overcast
2:55 AM 56.8 °F - 55.0 °F 94% 30.13 in 3.0 mi North 5.8 mph - N/A   Overcast
3:15 AM 57.2 °F - 55.4 °F 94% 30.13 in 3.0 mi North 8.1 mph - N/A   Overcast
3:35 AM 57.2 °F - 55.2 °F 93% 30.14 in 5.0 mi NNE 6.9 mph - N/A   Overcast
3:55 AM 57.2 °F - 55.4 °F 94% 30.14 in 5.0 mi North 6.9 mph - N/A   Overcast
4:15 AM 57.2 °F - 54.9 °F 92% 30.15 in 5.0 mi North 9.2 mph - N/A   Overcast
4:35 AM 55.8 °F - 53.6 °F 92% 30.15 in 5.0 mi NNE 8.1 mph - N/A   Scattered Clouds
4:55 AM 54.9 °F - 52.7 °F 92% 30.16 in 5.0 mi NNE 9.2 mph 16.1 mph N/A   Clear
5:15 AM 54.0 °F - 51.8 °F 92% 30.16 in 5.0 mi NNE 9.2 mph - N/A   Clear
5:35 AM 53.8 °F - 51.4 °F 92% 30.18 in 5.0 mi NNE 8.1 mph - N/A   Scattered Clouds
5:55 AM 53.1 °F - 50.4 °F 91% 30.19 in 4.0 mi NNE 4.6 mph - N/A   Scattered Clouds
6:15 AM 52.3 °F - 49.6 °F 91% 30.19 in 4.0 mi NNE 5.8 mph - N/A   Clear
6:35 AM 52.0 °F - 49.3 °F 90% 30.20 in 2.5 mi NNE 5.8 mph - N/A   Clear
6:55 AM 51.8 °F - 49.1 °F 90% 30.21 in 2.5 mi NNE 6.9 mph - N/A   Clear
7:15 AM 52.0 °F - 49.1 °F 90% 30.22 in 3.0 mi NNE 6.9 mph - N/A   Clear
7:35 AM 52.9 °F - 50.0 °F 90% 30.23 in 3.0 mi NNE 9.2 mph - N/A   Scattered Clouds
7:55 AM 54.1 °F - 51.4 °F 91% 30.24 in 3.0 mi NNE 10.4 mph - N/A   Mostly Cloudy
8:15 AM 55.2 °F - 52.7 °F 91% 30.24 in 4.0 mi NNE 9.2 mph - N/A   Overcast
8:35 AM 57.2 °F - 53.8 °F 88% 30.25 in 7.0 mi NE 11.5 mph - N/A   Scattered Clouds
8:55 AM 56.5 °F - 52.9 °F 88% 30.26 in 7.0 mi NE 8.1 mph 17.3 mph N/A   Mostly Cloudy
9:15 AM 57.6 °F - 53.6 °F 87% 30.27 in 7.0 mi NE 9.2 mph - N/A   Overcast
9:35 AM 59.4 °F - 54.7 °F 84% 30.27 in 10.0 mi ENE 9.2 mph 18.4 mph N/A   Overcast
9:55 AM 59.2 °F - 54.1 °F 83% 30.27 in 10.0 mi NE 9.2 mph - N/A   Overcast
10:15 AM 59.4 °F - 53.6 °F 81% 30.28 in 10.0 mi NE 10.4 mph - N/A   Overcast
10:35 AM 59.4 °F - 53.6 °F 81% 30.28 in 10.0 mi NE 11.5 mph 17.3 mph N/A   Overcast
10:55 AM 59.2 °F - 52.9 °F 80% 30.29 in 10.0 mi NE 8.1 mph - N/A   Overcast
11:15 AM 59.5 °F - 53.2 °F 80% 30.29 in 10.0 mi NE 10.4 mph - N/A   Overcast
11:35 AM 60.4 °F - 54.7 °F 81% 30.29 in 10.0 mi NE 8.1 mph - N/A   Overcast
11:55 AM 61.7 °F - 55.2 °F 79% 30.29 in 10.0 mi ENE 9.2 mph - N/A   Overcast
12:15 PM 63.3 °F - 55.8 °F 76% 30.29 in 10.0 mi NE 10.4 mph - N/A   Overcast
12:35 PM 65.3 °F - 55.6 °F 71% 30.29 in 10.0 mi East 9.2 mph - N/A   Mostly Cloudy
12:55 PM 63.7 °F - 52.5 °F 67% 30.29 in 10.0 mi ENE 6.9 mph - N/A   Overcast
1:15 PM 64.9 °F - 53.2 °F 66% 30.29 in 10.0 mi NE 6.9 mph - N/A   Overcast
1:35 PM 63.5 °F - 52.0 °F 66% 30.28 in 10.0 mi ENE 6.9 mph - N/A   Overcast
1:55 PM 64.0 °F - 52.5 °F 66% 30.28 in 10.0 mi NNE 6.9 mph - N/A   Overcast
2:15 PM 64.6 °F - 52.7 °F 65% 30.27 in 10.0 mi NE 8.1 mph - N/A   Overcast
2:35 PM 65.5 °F - 53.6 °F 65% 30.26 in 10.0 mi East 8.1 mph - N/A   Overcast
2:55 PM 66.0 °F - 52.3 °F 61% 30.26 in 10.0 mi NNE 3.5 mph - N/A   Overcast
3:15 PM 65.8 °F - 53.8 °F 65% 30.25 in 10.0 mi East 8.1 mph - N/A   Mostly Cloudy
3:35 PM 69.1 °F - 53.1 °F 57% 30.25 in 10.0 mi East 10.4 mph - N/A   Mostly Cloudy
3:55 PM 67.1 °F - 50.9 °F 56% 30.25 in 10.0 mi East 5.8 mph - N/A   Overcast
4:15 PM 66.4 °F - 51.4 °F 59% 30.25 in 10.0 mi NE 4.6 mph - N/A   Overcast
4:35 PM 65.3 °F - 50.9 °F 60% 30.25 in 10.0 mi East 5.8 mph - N/A   Overcast
4:55 PM 65.3 °F - 51.8 °F 62% 30.25 in 10.0 mi East 3.5 mph - N/A   Overcast
5:15 PM 64.8 °F - 51.3 °F 62% 30.25 in 10.0 mi East 6.9 mph - N/A   Overcast
5:35 PM 64.4 °F - 51.3 °F 62% 30.25 in 10.0 mi East 5.8 mph - N/A   Overcast
5:55 PM 63.7 °F - 50.5 °F 62% 30.25 in 10.0 mi East 4.6 mph - N/A   Overcast
6:15 PM 63.0 °F - 50.2 °F 63% 30.25 in 10.0 mi East 5.8 mph - N/A   Overcast
6:35 PM 62.6 °F - 50.5 °F 65% 30.25 in 10.0 mi ENE 4.6 mph - N/A   Overcast
6:55 PM 61.5 °F - 48.6 °F 62% 30.25 in 10.0 mi ENE 3.5 mph - N/A   Mostly Cloudy
7:15 PM 57.7 °F - 45.3 °F 63% 30.24 in 10.0 mi ENE 3.5 mph - N/A   Clear
7:35 PM 55.6 °F - 43.5 °F 64% 30.25 in 10.0 mi ENE 3.5 mph - N/A   Clear
7:55 PM 53.8 °F - 42.1 °F 65% 30.25 in 10.0 mi ENE 4.6 mph - N/A   Clear
8:15 PM 53.1 °F - 41.5 °F 65% 30.25 in 10.0 mi ENE 3.5 mph - N/A   Clear
8:35 PM 51.8 °F - 40.5 °F 65% 30.25 in 10.0 mi ENE 4.6 mph - N/A   Clear
8:55 PM 51.8 °F - 40.6 °F 66% 30.25 in 10.0 mi East 4.6 mph - N/A   Clear
9:15 PM 51.3 °F - 40.6 °F 67% 30.25 in 10.0 mi East 3.5 mph - N/A   Clear
9:35 PM 50.4 °F - 40.1 °F 68% 30.26 in 10.0 mi East 3.5 mph - N/A   Clear
9:55 PM 50.0 °F - 39.9 °F 68% 30.26 in 10.0 mi East 3.5 mph - N/A   Clear
10:15 PM 49.1 °F - 39.6 °F 70% 30.26 in 10.0 mi ENE 3.5 mph - N/A   Clear
10:35 PM 48.9 °F - 40.6 °F 73% 30.27 in 10.0 mi Calm Calm - N/A   Clear
10:55 PM 47.5 °F - 42.3 °F 82% 30.27 in 10.0 mi North 4.6 mph - N/A   Clear
11:15 PM 46.8 °F - 43.0 °F 87% 30.28 in 10.0 mi North 5.8 mph - N/A   Clear
11:35 PM 46.4 °F 43.5 °F 43.0 °F 88% 30.28 in 10.0 mi North 5.8 mph - N/A   Clear
11:55 PM 45.9 °F 44.6 °F 42.3 °F 87% 30.28 in 10.0 mi North 3.5 mph - N/A   Clear